MRK1434 SAEZ-SGAS

Flight info

Callsign MRK1434
Flight time 1h 56m
Altitude 36000
Route LANDA UN785 GUA UL793 DALAB UZ103 REPAM UP526 SAMGU
Aircraft B77L/H-SDE1E2E3FGHIJ2J3J4J5M1RWXY/LB1D1

Departure

Time 2026-05-07 19:43
Airport Ezeiza International Airport - Ministro Pistarini (SAEZ)

Arrival

Time 2026-05-07 21:39
Airport Silvio Pettirossi International Airport (SGAS)
Time Latitude Longitude Altitude Speed Heading
2026-05-07 19:18 -34.81026 -58.53697 80 ft 0 kts 252°
2026-05-07 19:32 -34.81025 -58.53697 80 ft 1 kts 252°
2026-05-07 19:32 -34.81016 -58.53670 80 ft 4 kts 232°
2026-05-07 19:32 -34.80997 -58.53648 84 ft 4 kts 210°
2026-05-07 19:33 -34.80972 -58.53635 86 ft 4 kts 195°
2026-05-07 19:33 -34.80946 -58.53629 80 ft 4 kts 185°
2026-05-07 19:33 -34.80919 -58.53627 81 ft 4 kts 178°
2026-05-07 19:33 -34.80892 -58.53630 80 ft 4 kts 172°
2026-05-07 19:34 -34.80865 -58.53635 82 ft 4 kts 167°
2026-05-07 19:34 -34.80842 -58.53642 81 ft 1 kts 164°
2026-05-07 19:34 -34.80841 -58.53642 86 ft 0 kts 164°
2026-05-07 19:36 -34.80851 -58.53639 86 ft 9 kts 164°
2026-05-07 19:36 -34.80891 -58.53543 85 ft 15 kts 82°
2026-05-07 19:37 -34.80875 -58.53420 90 ft 15 kts 111°
2026-05-07 19:37 -34.80960 -58.53350 91 ft 15 kts 162°
2026-05-07 19:37 -34.81061 -58.53313 92 ft 15 kts 163°
2026-05-07 19:37 -34.81163 -58.53278 87 ft 16 kts 165°
2026-05-07 19:38 -34.81307 -58.53229 91 ft 29 kts 164°
2026-05-07 19:38 -34.81506 -58.53162 90 ft 30 kts 164°
2026-05-07 19:38 -34.81705 -58.53093 87 ft 30 kts 163°
2026-05-07 19:38 -34.81900 -58.53024 89 ft 28 kts 163°
2026-05-07 19:39 -34.82046 -58.52926 88 ft 23 kts 111°
2026-05-07 19:39 -34.82082 -58.52746 85 ft 18 kts 103°
2026-05-07 19:39 -34.82104 -58.52635 84 ft 10 kts 103°
2026-05-07 19:39 -34.82120 -58.52554 85 ft 10 kts 103°
2026-05-07 19:40 -34.82143 -58.52438 82 ft 19 kts 103°
2026-05-07 19:40 -34.82173 -58.52286 80 ft 18 kts 103°
2026-05-07 19:40 -34.82203 -58.52136 81 ft 18 kts 103°
2026-05-07 19:40 -34.82232 -58.51988 83 ft 17 kts 104°
2026-05-07 19:41 -34.82262 -58.51853 85 ft 16 kts 106°
2026-05-07 19:41 -34.82330 -58.51790 85 ft 12 kts 186°
2026-05-07 19:41 -34.82397 -58.51806 82 ft 9 kts 192°
2026-05-07 19:41 -34.82458 -58.51825 89 ft 9 kts 201°
2026-05-07 19:42 -34.82519 -58.51894 86 ft 11 kts 258°
2026-05-07 19:42 -34.82517 -58.51922 87 ft 1 kts 282°
2026-05-07 19:42 -34.82515 -58.51932 88 ft 0 kts 282°
2026-05-07 19:43 -34.82496 -58.52045 87 ft 47 kts 282°
2026-05-07 19:43 -34.82374 -58.52736 88 ft 118 kts 282°
2026-05-07 19:43 -34.82162 -58.53936 96 ft 172 kts 281°
2026-05-07 19:43 -34.81927 -58.55313 856 ft 149 kts 282°
2026-05-07 19:44 -34.81690 -58.56498 1563 ft 149 kts 283°
2026-05-07 19:44 -34.81443 -58.57762 1893 ft 156 kts 281°
2026-05-07 19:44 -34.81207 -58.59026 2412 ft 152 kts 281°
2026-05-07 19:44 -34.81102 -58.60381 2557 ft 171 kts 252°
2026-05-07 19:45 -34.81802 -58.61609 2745 ft 187 kts 231°
2026-05-07 19:45 -34.82705 -58.62886 2913 ft 212 kts 232°
2026-05-07 19:45 -34.83703 -58.64335 3183 ft 233 kts 232°
2026-05-07 19:45 -34.84759 -58.65874 3836 ft 239 kts 233°
2026-05-07 19:46 -34.85833 -58.67442 4589 ft 243 kts 232°
2026-05-07 19:46 -34.86933 -58.69041 5277 ft 248 kts 230°
2026-05-07 19:46 -34.88347 -58.70293 5828 ft 260 kts 202°
2026-05-07 19:46 -34.90164 -58.70560 6588 ft 270 kts 178°
2026-05-07 19:47 -34.91997 -58.69869 7243 ft 285 kts 154°
2026-05-07 19:47 -34.93494 -58.68254 7843 ft 294 kts 133°
2026-05-07 19:47 -34.94680 -58.66235 8374 ft 302 kts 117°
2026-05-07 19:47 -34.95129 -58.63716 8964 ft 311 kts 87°
2026-05-07 19:48 -34.94582 -58.61185 9688 ft 311 kts 59°
2026-05-07 19:48 -34.93193 -58.59180 10185 ft 316 kts 33°
2026-05-07 19:48 -34.91203 -58.57940 10354 ft 331 kts 19°
2026-05-07 19:48 -34.88991 -58.56857 10536 ft 354 kts 19°
2026-05-07 19:49 -34.86638 -58.55691 10780 ft 375 kts 20°
2026-05-07 19:49 -34.84178 -58.54532 11338 ft 383 kts 14°
2026-05-07 19:49 -34.81567 -58.53835 12192 ft 382 kts
2026-05-07 19:49 -34.78933 -58.53598 13198 ft 378 kts 356°
2026-05-07 19:50 -34.76300 -58.53682 14110 ft 378 kts 354°
2026-05-07 19:50 -34.73671 -58.53813 15023 ft 379 kts 354°
2026-05-07 19:50 -34.71040 -58.53953 15937 ft 378 kts 353°
2026-05-07 19:50 -34.68414 -58.54088 16835 ft 378 kts 353°
2026-05-07 19:51 -34.65783 -58.54216 17642 ft 379 kts 353°
2026-05-07 19:51 -34.63151 -58.54337 18467 ft 379 kts 353°
2026-05-07 19:51 -34.60514 -58.54453 19237 ft 380 kts 353°
2026-05-07 19:51 -34.57861 -58.54568 19893 ft 383 kts 353°
2026-05-07 19:52 -34.55179 -58.54684 20469 ft 388 kts 353°
2026-05-07 19:52 -34.52504 -58.54799 21067 ft 391 kts 353°
2026-05-07 19:52 -34.49779 -58.54912 21717 ft 392 kts 353°
2026-05-07 19:52 -34.47044 -58.55026 22321 ft 394 kts 353°
2026-05-07 19:53 -34.44290 -58.55141 22844 ft 398 kts 354°
2026-05-07 19:53 -34.41507 -58.55257 23353 ft 401 kts 353°
2026-05-07 19:53 -34.38704 -58.55375 23871 ft 404 kts 354°
2026-05-07 19:53 -34.35887 -58.55493 24396 ft 407 kts 354°
2026-05-07 19:54 -34.33044 -58.55611 24898 ft 409 kts 354°
2026-05-07 19:54 -34.30189 -58.55730 25382 ft 412 kts 354°
2026-05-07 19:54 -34.27308 -58.55852 25838 ft 416 kts 354°
2026-05-07 19:54 -34.24403 -58.55974 26299 ft 419 kts 354°
2026-05-07 19:55 -34.21485 -58.56094 26777 ft 421 kts 354°
2026-05-07 19:55 -34.18544 -58.56215 27234 ft 424 kts 354°
2026-05-07 19:55 -34.15593 -58.56337 27673 ft 426 kts 354°
2026-05-07 19:55 -34.12620 -58.56461 28083 ft 429 kts 354°
2026-05-07 19:56 -34.09631 -58.56593 28493 ft 431 kts 354°
2026-05-07 19:56 -34.06630 -58.56737 28905 ft 433 kts 354°
2026-05-07 19:56 -34.03611 -58.56885 29266 ft 435 kts 354°
2026-05-07 19:56 -34.00576 -58.57034 29596 ft 438 kts 354°
2026-05-07 19:57 -33.97572 -58.57179 29901 ft 441 kts 354°
2026-05-07 19:57 -33.94498 -58.57326 30232 ft 443 kts 354°
2026-05-07 19:57 -33.91427 -58.57470 30766 ft 439 kts 354°
2026-05-07 19:57 -33.88388 -58.57609 31374 ft 434 kts 354°
2026-05-07 19:58 -33.85381 -58.57740 31901 ft 430 kts 354°
2026-05-07 19:58 -33.82395 -58.57870 32339 ft 428 kts 354°
2026-05-07 19:58 -33.79417 -58.57998 32756 ft 427 kts 354°
2026-05-07 19:58 -33.76458 -58.58125 33183 ft 424 kts 354°
2026-05-07 19:59 -33.73515 -58.58253 33586 ft 422 kts 354°
2026-05-07 19:59 -33.70585 -58.58381 33991 ft 420 kts 354°
2026-05-07 19:59 -33.67677 -58.58508 34375 ft 417 kts 354°
2026-05-07 19:59 -33.64772 -58.58636 34590 ft 419 kts 354°
2026-05-07 20:00 -33.58904 -58.58895 34659 ft 422 kts 354°
2026-05-07 20:00 -33.53097 -58.59147 34659 ft 417 kts 354°
2026-05-07 20:01 -33.47306 -58.59397 34664 ft 416 kts 354°
2026-05-07 20:01 -33.41525 -58.59649 34670 ft 415 kts 354°
2026-05-07 20:02 -33.35748 -58.59900 34667 ft 415 kts 354°
2026-05-07 20:02 -33.29965 -58.60151 34666 ft 416 kts 354°
2026-05-07 20:03 -33.25148 -58.60359 34669 ft 417 kts 354°
2026-05-07 20:03 -33.18391 -58.60651 34664 ft 418 kts 354°
2026-05-07 20:04 -33.12565 -58.60901 34669 ft 419 kts 354°
2026-05-07 20:04 -33.07678 -58.61112 34665 ft 420 kts 354°
2026-05-07 20:05 -33.01864 -58.61364 34665 ft 421 kts 354°
2026-05-07 20:05 -32.96032 -58.61746 34662 ft 421 kts 352°
2026-05-07 20:06 -32.90188 -58.62280 34665 ft 422 kts 352°
2026-05-07 20:06 -32.84330 -58.62804 34664 ft 422 kts 352°
2026-05-07 20:07 -32.78465 -58.63307 34667 ft 423 kts 352°
2026-05-07 20:07 -32.72589 -58.63803 34672 ft 424 kts 352°
2026-05-07 20:08 -32.66702 -58.64298 34677 ft 425 kts 352°
2026-05-07 20:08 -32.60805 -58.64794 34675 ft 425 kts 352°
2026-05-07 20:09 -32.54900 -58.65290 34683 ft 426 kts 352°
2026-05-07 20:10 -32.46028 -58.66034 34714 ft 426 kts 352°
2026-05-07 20:10 -32.40107 -58.66531 34736 ft 426 kts 352°
2026-05-07 20:11 -32.34207 -58.66825 34739 ft 430 kts 358°
2026-05-07 20:11 -32.28181 -58.66099 34735 ft 435 kts
2026-05-07 20:12 -32.22219 -58.64841 34742 ft 434 kts
2026-05-07 20:12 -32.16345 -58.63588 34747 ft 426 kts
2026-05-07 20:13 -32.10529 -58.62373 34748 ft 424 kts
2026-05-07 20:13 -32.04753 -58.61178 34754 ft 424 kts
2026-05-07 20:14 -31.98960 -58.59982 34751 ft 424 kts
2026-05-07 20:14 -31.93118 -58.58777 34755 ft 427 kts
2026-05-07 20:15 -31.87247 -58.57568 34765 ft 431 kts
2026-05-07 20:15 -31.81380 -58.56358 34751 ft 421 kts
2026-05-07 20:16 -31.75647 -58.55174 34759 ft 416 kts
2026-05-07 20:16 -31.69971 -58.54011 34769 ft 412 kts
2026-05-07 20:17 -31.64333 -58.52857 34780 ft 411 kts
2026-05-07 20:17 -31.58706 -58.51705 34789 ft 410 kts
2026-05-07 20:18 -31.53146 -58.50564 34786 ft 401 kts
2026-05-07 20:18 -31.47692 -58.49449 34789 ft 399 kts
2026-05-07 20:19 -31.42225 -58.48336 34799 ft 398 kts
2026-05-07 20:19 -31.36765 -58.47223 34802 ft 398 kts
2026-05-07 20:20 -31.31298 -58.46112 34818 ft 399 kts
2026-05-07 20:20 -31.25809 -58.44996 34832 ft 401 kts
2026-05-07 20:21 -31.20301 -58.43877 34832 ft 402 kts
2026-05-07 20:21 -31.14773 -58.42755 34819 ft 404 kts
2026-05-07 20:22 -31.09224 -58.41629 34816 ft 405 kts
2026-05-07 20:22 -31.03694 -58.40509 34805 ft 406 kts
2026-05-07 20:23 -30.98132 -58.39385 34813 ft 407 kts
2026-05-07 20:23 -30.92538 -58.38254 34809 ft 408 kts
2026-05-07 20:24 -30.86950 -58.37105 34807 ft 409 kts
2026-05-07 20:24 -30.81365 -58.35846 34825 ft 409 kts
2026-05-07 20:25 -30.75781 -58.34602 34796 ft 404 kts
2026-05-07 20:25 -30.70341 -58.33388 34799 ft 398 kts
2026-05-07 20:26 -30.64898 -58.32176 34801 ft 399 kts
2026-05-07 20:26 -30.59433 -58.30965 34799 ft 400 kts
2026-05-07 20:27 -30.53944 -58.29870 34797 ft 401 kts
2026-05-07 20:27 -30.48423 -58.28829 34800 ft 403 kts
2026-05-07 20:28 -30.42887 -58.27779 34799 ft 404 kts
2026-05-07 20:28 -30.37328 -58.26714 34797 ft 405 kts
2026-05-07 20:29 -30.31759 -58.25644 34786 ft 405 kts
2026-05-07 20:29 -30.26194 -58.24575 34782 ft 405 kts
2026-05-07 20:30 -30.20636 -58.23510 34779 ft 405 kts
2026-05-07 20:30 -30.15113 -58.22452 34776 ft 404 kts 360°
2026-05-07 20:31 -30.09569 -58.21392 34769 ft 404 kts
2026-05-07 20:31 -30.04035 -58.20335 34767 ft 403 kts 360°
2026-05-07 20:32 -29.98520 -58.19283 34767 ft 403 kts 360°
2026-05-07 20:32 -29.92992 -58.18230 34759 ft 403 kts 360°
2026-05-07 20:33 -29.87458 -58.17176 34761 ft 403 kts 360°
2026-05-07 20:33 -29.81913 -58.16124 34759 ft 404 kts 360°
2026-05-07 20:34 -29.76394 -58.15000 34758 ft 406 kts
2026-05-07 20:34 -29.70837 -58.13824 34750 ft 407 kts
2026-05-07 20:35 -29.65266 -58.12656 34752 ft 407 kts
2026-05-07 20:35 -29.59687 -58.11494 34735 ft 407 kts
2026-05-07 20:36 -29.54111 -58.10335 34725 ft 407 kts
2026-05-07 20:36 -29.48542 -58.09178 34739 ft 406 kts
2026-05-07 20:37 -29.42973 -58.08023 34730 ft 406 kts
2026-05-07 20:37 -29.37630 -58.06778 34731 ft 409 kts
2026-05-07 20:38 -29.32082 -58.05272 34735 ft 409 kts
2026-05-07 20:38 -29.26540 -58.03768 34719 ft 409 kts
2026-05-07 20:39 -29.20954 -58.02280 34737 ft 409 kts
2026-05-07 20:39 -29.15446 -58.00828 34728 ft 409 kts
2026-05-07 20:40 -29.09864 -57.99366 34738 ft 415 kts
2026-05-07 20:40 -29.04279 -57.97909 34738 ft 425 kts
2026-05-07 20:41 -28.98533 -57.96399 34733 ft 425 kts
2026-05-07 20:41 -28.92869 -57.94909 34728 ft 424 kts
2026-05-07 20:42 -28.87148 -57.93409 34731 ft 421 kts
2026-05-07 20:42 -28.81468 -57.91923 34735 ft 418 kts
2026-05-07 20:43 -28.75811 -57.90447 34734 ft 416 kts
2026-05-07 20:43 -28.70305 -57.89012 34740 ft 414 kts
2026-05-07 20:44 -28.64973 -57.87623 34740 ft 413 kts
2026-05-07 20:44 -28.59377 -57.86170 34740 ft 414 kts
2026-05-07 20:45 -28.53891 -57.83777 34745 ft 437 kts 21°
2026-05-07 20:45 -28.51380 -57.81729 34742 ft 452 kts 31°
2026-05-07 20:45 -28.49130 -57.79158 34743 ft 465 kts 40°
2026-05-07 20:45 -28.47218 -57.76126 34738 ft 479 kts 50°
2026-05-07 20:46 -28.45705 -57.72707 34743 ft 491 kts 60°
2026-05-07 20:46 -28.44642 -57.68981 34740 ft 502 kts 70°
2026-05-07 20:46 -28.44069 -57.65025 34743 ft 512 kts 79°
2026-05-07 20:47 -28.44483 -57.56860 34738 ft 526 kts 99°
2026-05-07 20:47 -28.46640 -57.49600 34747 ft 531 kts 112°
2026-05-07 20:48 -28.49709 -57.42307 34738 ft 532 kts 115°
2026-05-07 20:48 -28.52676 -57.35564 34720 ft 532 kts 116°
2026-05-07 20:49 -28.55698 -57.28639 34713 ft 529 kts 111°
2026-05-07 20:49 -28.57645 -57.20671 34725 ft 519 kts 92°
2026-05-07 20:49 -28.57833 -57.16600 34717 ft 511 kts 81°
2026-05-07 20:50 -28.57291 -57.12681 34704 ft 494 kts 64°
2026-05-07 20:50 -28.56031 -57.09107 34714 ft 483 kts 55°
2026-05-07 20:50 -28.54495 -57.05732 34706 ft 479 kts 52°
2026-05-07 20:51 -28.51266 -56.99291 34693 ft 477 kts 51°
2026-05-07 20:51 -28.47919 -56.92797 34683 ft 472 kts 51°
2026-05-07 20:52 -28.44684 -56.86528 34670 ft 457 kts 50°
2026-05-07 20:52 -28.41458 -56.80295 34679 ft 458 kts 50°
2026-05-07 20:53 -28.38218 -56.74074 34664 ft 457 kts 50°
2026-05-07 20:53 -28.34977 -56.67867 34653 ft 456 kts 50°
2026-05-07 20:54 -28.31951 -56.63114 34645 ft 432 kts 31°
2026-05-07 20:54 -28.29582 -56.61161 34668 ft 416 kts 20°
2026-05-07 20:54 -28.27054 -56.59597 34663 ft 412 kts 17°
2026-05-07 20:55 -28.21885 -56.56791 34666 ft 411 kts 15°
2026-05-07 20:55 -28.16664 -56.54152 34652 ft 402 kts
2026-05-07 20:55 -28.13985 -56.53701 34669 ft 381 kts 349°
2026-05-07 20:56 -28.11444 -56.54249 34674 ft 367 kts 335°
2026-05-07 20:56 -28.06719 -56.56415 34668 ft 366 kts 329°
2026-05-07 20:57 -28.02218 -56.59077 34666 ft 365 kts 327°
2026-05-07 20:57 -27.97750 -56.61793 34662 ft 365 kts 327°
2026-05-07 20:58 -27.93290 -56.64485 34666 ft 366 kts 327°
2026-05-07 20:58 -27.88794 -56.67178 34670 ft 366 kts 327°
2026-05-07 20:59 -27.84294 -56.69863 34665 ft 366 kts 327°
2026-05-07 20:59 -27.79789 -56.72544 34655 ft 365 kts 327°
2026-05-07 21:00 -27.75300 -56.75212 34655 ft 364 kts 327°
2026-05-07 21:00 -27.70822 -56.77872 34655 ft 363 kts 327°
2026-05-07 21:01 -27.66352 -56.80526 34654 ft 363 kts 327°
2026-05-07 21:01 -27.61893 -56.83171 33822 ft 360 kts 328°
2026-05-07 21:01 -27.59669 -56.84486 34086 ft 362 kts 329°
2026-05-07 21:02 -27.57431 -56.85810 34337 ft 363 kts 329°
2026-05-07 21:02 -27.55185 -56.87143 34480 ft 366 kts 329°
2026-05-07 21:02 -27.52915 -56.88490 34584 ft 371 kts 329°
2026-05-07 21:03 -27.48308 -56.91212 34695 ft 375 kts 329°
2026-05-07 21:03 -27.43697 -56.93936 34689 ft 378 kts 329°
2026-05-07 21:04 -27.39034 -56.96685 34702 ft 379 kts 329°
2026-05-07 21:04 -27.34361 -56.99445 34707 ft 380 kts 329°
2026-05-07 21:05 -27.29680 -57.02201 34709 ft 379 kts 329°
2026-05-07 21:05 -27.25051 -57.04925 34703 ft 376 kts 329°
2026-05-07 21:06 -27.20424 -57.07643 34702 ft 374 kts 328°
2026-05-07 21:06 -27.15787 -57.10371 34712 ft 376 kts 328°
2026-05-07 21:07 -27.11138 -57.13110 34701 ft 373 kts 330°
2026-05-07 21:07 -27.06603 -57.15755 34316 ft 361 kts 329°
2026-05-07 21:07 -27.04405 -57.17039 33655 ft 354 kts 329°
2026-05-07 21:08 -27.02253 -57.18305 32606 ft 348 kts 329°
2026-05-07 21:08 -27.00110 -57.19579 31607 ft 348 kts 329°
2026-05-07 21:08 -26.97947 -57.20850 30875 ft 354 kts 329°
2026-05-07 21:08 -26.95771 -57.22118 30544 ft 349 kts 330°
2026-05-07 21:09 -26.93630 -57.23362 30254 ft 344 kts 330°
2026-05-07 21:09 -26.91541 -57.24577 29727 ft 345 kts 330°
2026-05-07 21:09 -26.89365 -57.25848 28605 ft 359 kts 329°
2026-05-07 21:09 -26.87171 -57.27124 28206 ft 356 kts 329°
2026-05-07 21:10 -26.84935 -57.28336 27650 ft 359 kts 338°
2026-05-07 21:10 -26.82417 -57.28791 27137 ft 379 kts 356°
2026-05-07 21:10 -26.79746 -57.28231 26633 ft 413 kts 14°
2026-05-07 21:10 -26.77088 -57.26642 26130 ft 453 kts 27°
2026-05-07 21:11 -26.74531 -57.24432 25928 ft 472 kts 32°
2026-05-07 21:11 -26.72031 -57.22032 25648 ft 474 kts 34°
2026-05-07 21:11 -26.67133 -57.17135 25060 ft 469 kts 34°
2026-05-07 21:12 -26.64724 -57.14702 24802 ft 466 kts 35°
2026-05-07 21:12 -26.62326 -57.12274 24510 ft 463 kts 35°
2026-05-07 21:12 -26.59947 -57.09861 24240 ft 460 kts 35°
2026-05-07 21:12 -26.57592 -57.07469 24021 ft 456 kts 35°
2026-05-07 21:13 -26.55280 -57.05118 23765 ft 454 kts 34°
2026-05-07 21:13 -26.52953 -57.02749 23469 ft 452 kts 35°
2026-05-07 21:13 -26.50634 -57.00390 23178 ft 450 kts 35°
2026-05-07 21:13 -26.48326 -56.98043 22861 ft 448 kts 35°
2026-05-07 21:14 -26.46028 -56.95706 22559 ft 445 kts 34°
2026-05-07 21:14 -26.43744 -56.93386 22222 ft 444 kts 34°
2026-05-07 21:14 -26.41474 -56.91076 22024 ft 439 kts 34°
2026-05-07 21:14 -26.39226 -56.88781 21787 ft 436 kts 34°
2026-05-07 21:15 -26.36989 -56.86495 21493 ft 435 kts 34°
2026-05-07 21:15 -26.34761 -56.84222 21178 ft 433 kts 34°
2026-05-07 21:15 -26.32547 -56.81966 20984 ft 429 kts 34°
2026-05-07 21:15 -26.30329 -56.79781 20850 ft 420 kts 31°
2026-05-07 21:16 -26.27968 -56.78063 20772 ft 396 kts 15°
2026-05-07 21:16 -26.25394 -56.77318 20734 ft 373 kts 357°
2026-05-07 21:16 -26.22923 -56.77582 20689 ft 354 kts 339°
2026-05-07 21:16 -26.20777 -56.78781 20644 ft 342 kts 320°
2026-05-07 21:17 -26.19216 -56.80720 20615 ft 335 kts 305°
2026-05-07 21:17 -26.18001 -56.82911 20585 ft 330 kts 301°
2026-05-07 21:17 -26.17123 -56.85255 20548 ft 330 kts 287°
2026-05-07 21:17 -26.16725 -56.87762 20531 ft 326 kts 283°
2026-05-07 21:18 -26.16432 -56.90254 20481 ft 323 kts 282°
2026-05-07 21:18 -26.16155 -56.92713 20454 ft 318 kts 282°
2026-05-07 21:18 -26.15874 -56.95136 20428 ft 314 kts 282°
2026-05-07 21:18 -26.15586 -56.97528 20396 ft 310 kts 283°
2026-05-07 21:19 -26.15293 -56.99884 20380 ft 305 kts 283°
2026-05-07 21:19 -26.14999 -57.02199 20329 ft 296 kts 283°
2026-05-07 21:19 -26.14716 -57.04416 20036 ft 285 kts 284°
2026-05-07 21:19 -26.14432 -57.06587 19611 ft 280 kts 284°
2026-05-07 21:20 -26.14150 -57.08729 19073 ft 280 kts 284°
2026-05-07 21:20 -26.13865 -57.10874 18548 ft 280 kts 284°
2026-05-07 21:20 -26.13579 -57.13002 18133 ft 275 kts 283°
2026-05-07 21:20 -26.13297 -57.15124 17832 ft 279 kts 283°
2026-05-07 21:21 -26.13025 -57.17183 17600 ft 269 kts 283°
2026-05-07 21:21 -26.12752 -57.19239 17047 ft 269 kts 283°
2026-05-07 21:21 -26.12476 -57.21305 16473 ft 269 kts 283°
2026-05-07 21:21 -26.12200 -57.23360 15984 ft 268 kts 283°
2026-05-07 21:22 -26.11927 -57.25402 15527 ft 266 kts 283°
2026-05-07 21:22 -26.11651 -57.27461 15224 ft 271 kts 283°
2026-05-07 21:22 -26.11375 -57.29525 15211 ft 268 kts 283°
2026-05-07 21:22 -26.11102 -57.31571 15185 ft 266 kts 283°
2026-05-07 21:23 -26.10830 -57.33602 15123 ft 263 kts 283°
2026-05-07 21:23 -26.10563 -57.35590 14745 ft 260 kts 283°
2026-05-07 21:23 -26.10293 -57.37584 14230 ft 262 kts 283°
2026-05-07 21:23 -26.10023 -57.39584 13820 ft 261 kts 283°
2026-05-07 21:24 -26.09760 -57.41573 13350 ft 259 kts 283°
2026-05-07 21:24 -26.09493 -57.43552 12871 ft 258 kts 283°
2026-05-07 21:24 -26.09223 -57.45512 12422 ft 255 kts 283°
2026-05-07 21:24 -26.08959 -57.47463 11966 ft 254 kts 283°
2026-05-07 21:25 -26.08701 -57.49401 11528 ft 254 kts 284°
2026-05-07 21:25 -26.08101 -57.51191 11149 ft 245 kts 307°
2026-05-07 21:25 -26.06923 -57.52519 10811 ft 254 kts 321°
2026-05-07 21:25 -26.05394 -57.53545 10654 ft 257 kts 336°
2026-05-07 21:26 -26.03656 -57.53899 10552 ft 253 kts 349°
2026-05-07 21:26 -26.01944 -57.54054 10420 ft 241 kts 349°
2026-05-07 21:26 -26.00292 -57.54206 10335 ft 239 kts 348°
2026-05-07 21:26 -25.98593 -57.54371 10247 ft 250 kts 349°
2026-05-07 21:27 -25.96843 -57.54542 10148 ft 253 kts 348°
2026-05-07 21:27 -25.95104 -57.54718 10026 ft 247 kts 348°
2026-05-07 21:27 -25.93460 -57.54884 9906 ft 235 kts 348°
2026-05-07 21:27 -25.91796 -57.55048 9833 ft 241 kts 348°
2026-05-07 21:28 -25.90111 -57.55221 9663 ft 253 kts 348°
2026-05-07 21:28 -25.88328 -57.55406 9310 ft 259 kts 349°
2026-05-07 21:28 -25.86533 -57.55590 8963 ft 258 kts 349°
2026-05-07 21:28 -25.84757 -57.55772 8621 ft 254 kts 349°
2026-05-07 21:29 -25.83008 -57.55951 8283 ft 251 kts 349°
2026-05-07 21:29 -25.81286 -57.56129 7967 ft 247 kts 349°
2026-05-07 21:29 -25.79586 -57.56304 7662 ft 243 kts 349°
2026-05-07 21:29 -25.77914 -57.56478 7342 ft 239 kts 349°
2026-05-07 21:30 -25.76268 -57.56648 7033 ft 236 kts 349°
2026-05-07 21:30 -25.74666 -57.56815 6739 ft 232 kts 349°
2026-05-07 21:30 -25.73051 -57.56982 6436 ft 229 kts 349°
2026-05-07 21:30 -25.71481 -57.57144 6148 ft 225 kts 349°
2026-05-07 21:31 -25.69961 -57.57302 5839 ft 220 kts 349°
2026-05-07 21:31 -25.68438 -57.57461 5553 ft 222 kts 349°
2026-05-07 21:31 -25.66873 -57.57628 5261 ft 230 kts 349°
2026-05-07 21:31 -25.65263 -57.57797 4988 ft 234 kts 350°
2026-05-07 21:32 -25.63646 -57.57963 4676 ft 232 kts 349°
2026-05-07 21:32 -25.62051 -57.58127 4364 ft 228 kts 349°
2026-05-07 21:32 -25.60484 -57.58288 4066 ft 224 kts 349°
2026-05-07 21:32 -25.58933 -57.58449 3771 ft 224 kts 349°
2026-05-07 21:33 -25.57357 -57.58614 3501 ft 232 kts 349°
2026-05-07 21:33 -25.55726 -57.58784 3222 ft 237 kts 350°
2026-05-07 21:33 -25.54108 -57.58949 3161 ft 230 kts 349°
2026-05-07 21:33 -25.52502 -57.58942 3091 ft 237 kts
2026-05-07 21:34 -25.50862 -57.58563 3023 ft 245 kts
2026-05-07 21:34 -25.49196 -57.58114 2922 ft 246 kts
2026-05-07 21:34 -25.47528 -57.57678 2800 ft 246 kts
2026-05-07 21:34 -25.45877 -57.57260 2716 ft 239 kts
2026-05-07 21:35 -25.44291 -57.56862 2618 ft 230 kts
2026-05-07 21:35 -25.42749 -57.56483 2541 ft 224 kts
2026-05-07 21:35 -25.41260 -57.56118 2512 ft 215 kts
2026-05-07 21:35 -25.39795 -57.55761 2402 ft 215 kts
2026-05-07 21:36 -25.38368 -57.55413 2314 ft 209 kts
2026-05-07 21:36 -25.36977 -57.55072 2231 ft 203 kts
2026-05-07 21:36 -25.35602 -57.54737 2154 ft 199 kts
2026-05-07 21:36 -25.34300 -57.54417 2130 ft 187 kts
2026-05-07 21:37 -25.33043 -57.54112 1884 ft 181 kts
2026-05-07 21:37 -25.31847 -57.53823 1696 ft 169 kts
2026-05-07 21:37 -25.30743 -57.53550 1324 ft 155 kts
2026-05-07 21:37 -25.29704 -57.53296 1148 ft 151 kts
2026-05-07 21:38 -25.28685 -57.53050 1013 ft 150 kts
2026-05-07 21:38 -25.27683 -57.52821 800 ft 144 kts
2026-05-07 21:38 -25.26739 -57.52603 572 ft 134 kts 14°
2026-05-07 21:38 -25.25857 -57.52378 390 ft 128 kts 13°
2026-05-07 21:39 -25.24996 -57.52163 303 ft 125 kts 13°
2026-05-07 21:39 -25.24200 -57.51970 287 ft 105 kts 12°
2026-05-07 21:39 -25.23638 -57.51828 279 ft 68 kts 12°
2026-05-07 21:39 -25.23277 -57.51737 277 ft 40 kts 13°
2026-05-07 21:40 -25.23091 -57.51682 276 ft 20 kts 35°
2026-05-07 21:40 -25.23073 -57.51572 279 ft 13 kts 102°
2026-05-07 21:40 -25.23122 -57.51493 282 ft 13 kts 167°
2026-05-07 21:40 -25.23215 -57.51507 282 ft 13 kts 193°
2026-05-07 21:41 -25.23306 -57.51533 282 ft 13 kts 196°
2026-05-07 21:41 -25.23398 -57.51553 282 ft 13 kts 189°
2026-05-07 21:41 -25.23490 -57.51571 282 ft 13 kts 191°
2026-05-07 21:41 -25.23582 -57.51593 282 ft 13 kts 192°
2026-05-07 21:42 -25.23673 -57.51615 283 ft 13 kts 192°
2026-05-07 21:42 -25.23764 -57.51638 283 ft 13 kts 192°
2026-05-07 21:42 -25.23856 -57.51660 283 ft 13 kts 192°
2026-05-07 21:42 -25.23947 -57.51683 283 ft 13 kts 193°
2026-05-07 21:43 -25.24039 -57.51706 283 ft 13 kts 192°
2026-05-07 21:43 -25.24130 -57.51728 283 ft 13 kts 192°
2026-05-07 21:43 -25.24200 -57.51745 283 ft 9 kts 193°
2026-05-07 21:43 -25.24261 -57.51760 283 ft 9 kts 187°
2026-05-07 21:44 -25.24308 -57.51699 283 ft 12 kts 102°
2026-05-07 21:44 -25.24328 -57.51606 283 ft 12 kts 113°
2026-05-07 21:44 -25.24399 -57.51563 286 ft 12 kts 163°
2026-05-07 21:44 -25.24438 -57.51576 283 ft 8 kts 241°
2026-05-07 21:45 -25.24421 -57.51599 283 ft 2 kts 343°
2026-05-07 21:45 -25.24415 -57.51601 283 ft 0 kts 345°